Time,TemperatureF,DewpointF,PressureIn,WindDirection,WindDirectionDegrees,WindSpeedMPH,WindSpeedGustMPH,Humidity,HourlyPrecipIn,Conditions,Clouds,dailyrainin,SoftwareType,DateUTC
2013-07-14 00:07:00,39.6,38.0,30.07,SSE,152,0.0,1.0,92,0.00,,,0.00,weatherlink.com 1.10,2013-07-14 07:07:00,
2013-07-14 00:22:00,39.0,37.0,30.07,SE,139,1.0,2.0,91,0.00,,,0.00,weatherlink.com 1.10,2013-07-14 07:22:00,
2013-07-14 00:37:00,38.8,37.0,30.07,SE,131,0.0,1.0,92,0.00,,,0.00,weatherlink.com 1.10,2013-07-14 07:37:00,
2013-07-14 00:52:00,38.2,37.0,30.07,SE,131,0.0,2.0,94,0.00,,,0.00,weatherlink.com 1.10,2013-07-14 07:52:00,
2013-07-14 01:07:00,37.2,35.0,30.06,SSE,154,0.0,1.0,91,0.00,,,0.00,weatherlink.com 1.10,2013-07-14 08:07:00,
2013-07-14 01:22:00,36.4,35.0,30.06,SSE,154,0.0,0.0,95,0.00,,,0.00,weatherlink.com 1.10,2013-07-14 08:22:00,
2013-07-14 01:37:00,36.4,35.0,30.07,SSE,153,0.0,0.0,94,0.00,,,0.00,weatherlink.com 1.10,2013-07-14 08:37:00,
2013-07-14 01:52:00,36.7,35.0,30.07,SSE,154,0.0,0.0,95,0.00,,,0.00,weatherlink.com 1.10,2013-07-14 08:52:00,
2013-07-14 02:07:00,36.6,35.0,30.07,SSW,211,0.0,0.0,95,0.00,,,0.00,weatherlink.com 1.10,2013-07-14 09:07:00,
2013-07-14 02:22:00,37.6,37.0,30.07,SSE,150,0.0,0.0,96,0.00,,,0.00,weatherlink.com 1.10,2013-07-14 09:22:00,
2013-07-14 02:37:00,37.2,36.0,30.07,SSW,210,0.0,2.0,95,0.00,,,0.00,weatherlink.com 1.10,2013-07-14 09:37:00,
2013-07-14 02:52:00,36.4,35.0,30.07,West,262,0.0,1.0,93,0.00,,,0.00,weatherlink.com 1.10,2013-07-14 09:52:00,
2013-07-14 03:07:00,40.3,39.0,30.07,North,11,0.0,1.0,94,0.00,,,0.00,weatherlink.com 1.10,2013-07-14 10:07:00,
2013-07-14 03:22:00,40.5,38.0,30.08,NNE,15,0.0,0.0,92,0.00,,,0.00,weatherlink.com 1.10,2013-07-14 10:22:00,
2013-07-14 03:37:00,40.4,39.0,30.07,NNE,16,0.0,0.0,95,0.00,,,0.00,weatherlink.com 1.10,2013-07-14 10:37:00,
2013-07-14 03:52:00,41.1,40.0,30.07,SE,132,1.0,1.0,94,0.00,,,0.00,weatherlink.com 1.10,2013-07-14 10:52:00,
2013-07-14 04:07:00,39.5,37.0,30.08,SSW,213,0.0,1.0,89,0.00,,,0.00,weatherlink.com 1.10,2013-07-14 11:07:00,
2013-07-14 04:22:00,40.6,40.0,30.08,SSW,195,0.0,1.0,96,0.00,,,0.00,weatherlink.com 1.10,2013-07-14 11:22:00,
2013-07-14 04:37:00,50.0,45.0,30.08,ENE,73,4.0,6.0,84,0.00,,,0.00,weatherlink.com 1.10,2013-07-14 11:37:00,
2013-07-14 04:52:00,50.8,45.0,30.08,ESE,110,4.0,6.0,81,0.00,,,0.00,weatherlink.com 1.10,2013-07-14 11:52:00,
2013-07-14 05:08:00,51.5,45.0,30.07,East,86,0.0,5.0,78,0.00,,,0.00,weatherlink.com 1.10,2013-07-14 12:08:00,
2013-07-14 05:23:00,50.4,45.0,30.10,SSE,155,2.0,6.0,81,0.00,,,0.00,weatherlink.com 1.10,2013-07-14 12:23:00,
2013-07-14 05:38:00,50.4,44.0,30.09,NE,46,2.0,5.0,80,0.00,,,0.00,weatherlink.com 1.10,2013-07-14 12:38:00,
2013-07-14 05:53:00,50.6,44.0,30.09,NE,48,1.0,3.0,79,0.00,,,0.00,weatherlink.com 1.10,2013-07-14 12:53:00,
2013-07-14 06:08:00,50.5,44.0,30.09,ENE,59,3.0,4.0,79,0.00,,,0.00,weatherlink.com 1.10,2013-07-14 13:08:00,
2013-07-14 06:23:00,50.3,44.0,30.09,ENE,74,1.0,3.0,78,0.00,,,0.00,weatherlink.com 1.10,2013-07-14 13:23:00,
2013-07-14 06:38:00,52.2,44.0,30.09,ENE,63,3.0,6.0,74,0.00,,,0.00,weatherlink.com 1.10,2013-07-14 13:38:00,
2013-07-14 06:53:00,54.9,44.0,30.10,NE,39,4.0,7.0,68,0.00,,,0.00,weatherlink.com 1.10,2013-07-14 13:53:00,
2013-07-14 07:08:00,57.2,45.0,30.09,ENE,77,2.0,6.0,63,0.00,,,0.00,weatherlink.com 1.10,2013-07-14 14:08:00,
2013-07-14 07:23:00,58.6,44.0,30.09,ESE,107,5.0,8.0,58,0.00,,,0.00,weatherlink.com 1.10,2013-07-14 14:23:00,
2013-07-14 07:38:00,59.1,43.0,30.09,NE,37,5.0,8.0,56,0.00,,,0.00,weatherlink.com 1.10,2013-07-14 14:38:00,
2013-07-14 07:53:00,59.2,45.0,30.09,ENE,58,4.0,8.0,59,0.00,,,0.00,weatherlink.com 1.10,2013-07-14 14:53:00,
2013-07-14 08:08:00,59.2,44.0,30.09,ENE,69,5.0,8.0,57,0.00,,,0.00,weatherlink.com 1.10,2013-07-14 15:08:00,
2013-07-14 08:23:00,60.5,44.0,30.09,NE,51,2.0,8.0,54,0.00,,,0.00,weatherlink.com 1.10,2013-07-14 15:23:00,
2013-07-14 08:38:00,61.6,44.0,30.09,ENE,67,3.0,7.0,53,0.00,,,0.00,weatherlink.com 1.10,2013-07-14 15:38:00,
2013-07-14 08:53:00,63.0,44.0,30.09,East,90,2.0,7.0,51,0.00,,,0.00,weatherlink.com 1.10,2013-07-14 15:53:00,
2013-07-14 09:08:00,64.3,45.0,30.09,ENE,78,5.0,6.0,50,0.00,,,0.00,weatherlink.com 1.10,2013-07-14 16:08:00,
2013-07-14 09:23:00,65.1,46.0,30.09,ENE,75,6.0,8.0,50,0.00,,,0.00,weatherlink.com 1.10,2013-07-14 16:23:00,
2013-07-14 09:38:00,66.0,48.0,30.08,SE,134,0.0,6.0,52,0.00,,,0.00,weatherlink.com 1.10,2013-07-14 16:38:00,
2013-07-14 09:53:00,67.2,46.0,30.08,NW,324,0.0,5.0,46,0.00,,,0.00,weatherlink.com 1.10,2013-07-14 16:53:00,
2013-07-14 10:08:00,68.5,46.0,30.08,ESE,119,2.0,4.0,45,0.00,,,0.00,weatherlink.com 1.10,2013-07-14 17:08:00,
2013-07-14 10:23:00,69.5,44.0,30.07,ESE,104,0.0,4.0,40,0.00,,,0.00,weatherlink.com 1.10,2013-07-14 17:23:00,
2013-07-14 10:39:00,70.6,43.0,30.07,North,359,1.0,4.0,37,0.00,,,0.00,weatherlink.com 1.10,2013-07-14 17:39:00,
2013-07-14 10:54:00,71.9,46.0,30.07,WNW,287,1.0,3.0,40,0.00,,,0.00,weatherlink.com 1.10,2013-07-14 17:54:00,
2013-07-14 11:09:00,73.1,45.0,30.07,SW,232,3.0,5.0,37,0.00,,,0.00,weatherlink.com 1.10,2013-07-14 18:09:00,
2013-07-14 11:24:00,72.9,45.0,30.07,WNW,292,2.0,4.0,37,0.00,,,0.00,weatherlink.com 1.10,2013-07-14 18:24:00,
2013-07-14 11:39:00,73.4,44.0,30.06,East,81,3.0,5.0,35,0.00,,,0.00,weatherlink.com 1.10,2013-07-14 18:39:00,
2013-07-14 11:54:00,73.5,44.0,30.06,WSW,249,1.0,6.0,35,0.00,,,0.00,weatherlink.com 1.10,2013-07-14 18:54:00,
2013-07-14 12:09:00,75.0,46.0,30.05,NE,44,1.0,5.0,35,0.00,,,0.00,weatherlink.com 1.10,2013-07-14 19:09:00,
2013-07-14 12:24:00,74.7,44.0,30.05,ENE,68,3.0,5.0,33,0.00,,,0.00,weatherlink.com 1.10,2013-07-14 19:24:00,
2013-07-14 12:39:00,75.4,43.0,30.05,NE,43,0.0,6.0,31,0.00,,,0.00,weatherlink.com 1.10,2013-07-14 19:39:00,
2013-07-14 12:54:00,77.0,45.0,30.04,South,188,1.0,5.0,32,0.00,,,0.00,weatherlink.com 1.10,2013-07-14 19:54:00,
2013-07-14 13:09:00,77.3,42.0,30.04,SSE,165,0.0,6.0,28,0.00,,,0.00,weatherlink.com 1.10,2013-07-14 20:09:00,
2013-07-14 13:24:00,78.2,42.0,30.03,SE,139,3.0,7.0,28,0.00,,,0.00,weatherlink.com 1.10,2013-07-14 20:24:00,
2013-07-14 13:39:00,79.3,42.0,30.03,SSE,161,2.0,7.0,26,0.00,,,0.00,weatherlink.com 1.10,2013-07-14 20:39:00,
2013-07-14 13:54:00,78.4,40.0,30.02,WSW,238,1.0,6.0,25,0.00,,,0.00,weatherlink.com 1.10,2013-07-14 20:54:00,
2013-07-14 14:09:00,79.4,43.0,30.02,SW,228,3.0,5.0,27,0.00,,,0.00,weatherlink.com 1.10,2013-07-14 21:09:00,
2013-07-14 14:24:00,78.9,42.0,30.01,NW,304,3.0,8.0,27,0.00,,,0.00,weatherlink.com 1.10,2013-07-14 21:24:00,
2013-07-14 14:39:00,79.3,42.0,30.00,NW,316,5.0,6.0,26,0.00,,,0.00,weatherlink.com 1.10,2013-07-14 21:39:00,
2013-07-14 14:54:00,79.2,41.0,30.00,West,281,4.0,9.0,26,0.00,,,0.00,weatherlink.com 1.10,2013-07-14 21:54:00,
2013-07-14 15:09:00,79.3,42.0,30.00,West,276,4.0,8.0,27,0.00,,,0.00,weatherlink.com 1.10,2013-07-14 22:09:00,
2013-07-14 15:24:00,79.4,44.0,29.99,West,274,2.0,7.0,28,0.00,,,0.00,weatherlink.com 1.10,2013-07-14 22:24:00,
2013-07-14 15:39:00,79.9,43.0,29.98,West,263,5.0,13.0,27,0.00,,,0.00,weatherlink.com 1.10,2013-07-14 22:39:00,
2013-07-14 15:54:00,80.1,39.0,29.98,NNW,329,3.0,10.0,23,0.00,,,0.00,weatherlink.com 1.10,2013-07-14 22:54:00,
2013-07-14 16:09:00,80.5,42.0,29.97,NW,314,2.0,7.0,25,0.00,,,0.00,weatherlink.com 1.10,2013-07-14 23:09:00,
2013-07-14 16:25:00,80.9,36.0,29.97,WNW,299,4.0,10.0,20,0.00,,,0.00,weatherlink.com 1.10,2013-07-14 23:25:00,
2013-07-14 16:40:00,81.0,38.0,29.96,WNW,297,6.0,7.0,21,0.00,,,0.00,weatherlink.com 1.10,2013-07-14 23:40:00,
2013-07-14 16:55:00,81.4,42.0,29.96,NW,305,2.0,8.0,25,0.00,,,0.00,weatherlink.com 1.10,2013-07-14 23:55:00,
2013-07-14 17:10:00,81.7,40.0,29.95,WNW,291,2.0,7.0,23,0.00,,,0.00,weatherlink.com 1.10,2013-07-15 00:10:00,
2013-07-14 17:25:00,81.5,43.0,29.95,SSW,193,0.0,7.0,26,0.00,,,0.00,weatherlink.com 1.10,2013-07-15 00:25:00,
2013-07-14 17:40:00,81.1,38.0,29.94,NNW,347,4.0,9.0,21,0.00,,,0.00,weatherlink.com 1.10,2013-07-15 00:40:00,
2013-07-14 17:55:00,81.2,38.0,29.94,NNW,338,3.0,7.0,21,0.00,,,0.00,weatherlink.com 1.10,2013-07-15 00:55:00,
2013-07-14 18:10:00,81.1,40.0,29.93,WNW,300,2.0,6.0,23,0.00,,,0.00,weatherlink.com 1.10,2013-07-15 01:10:00,
2013-07-14 18:25:00,80.8,41.0,29.93,WNW,291,2.0,6.0,24,0.00,,,0.00,weatherlink.com 1.10,2013-07-15 01:25:00,
2013-07-14 18:40:00,80.5,44.0,29.92,NW,315,3.0,6.0,27,0.00,,,0.00,weatherlink.com 1.10,2013-07-15 01:40:00,
2013-07-14 18:55:00,79.7,45.0,29.92,NW,312,3.0,5.0,29,0.00,,,0.00,weatherlink.com 1.10,2013-07-15 01:55:00,
2013-07-14 19:10:00,79.2,46.0,29.92,NW,309,2.0,4.0,31,0.00,,,0.00,weatherlink.com 1.10,2013-07-15 02:10:00,
2013-07-14 19:25:00,78.4,44.0,29.92,NNW,330,2.0,4.0,30,0.00,,,0.00,weatherlink.com 1.10,2013-07-15 02:25:00,
2013-07-14 19:40:00,77.5,48.0,29.92,North,3,1.0,1.0,36,0.00,,,0.00,weatherlink.com 1.10,2013-07-15 02:40:00,
2013-07-14 19:55:00,74.8,49.0,29.91,North,1,0.0,1.0,41,0.00,,,0.00,weatherlink.com 1.10,2013-07-15 02:55:00,
2013-07-14 20:10:00,70.3,49.0,29.91,NNW,341,0.0,1.0,47,0.00,,,0.00,weatherlink.com 1.10,2013-07-15 03:10:00,
2013-07-14 20:25:00,66.8,48.0,29.91,NNW,346,1.0,1.0,51,0.00,,,0.00,weatherlink.com 1.10,2013-07-15 03:25:00,
2013-07-14 20:40:00,62.4,49.0,29.92,NNE,21,0.0,0.0,62,0.00,,,0.00,weatherlink.com 1.10,2013-07-15 03:40:00,
2013-07-14 20:55:00,58.9,47.0,29.92,NNE,20,1.0,1.0,65,0.00,,,0.00,weatherlink.com 1.10,2013-07-15 03:55:00,
2013-07-14 21:10:00,57.3,47.0,29.92,NNE,20,0.0,0.0,69,0.00,,,0.00,weatherlink.com 1.10,2013-07-15 04:10:00,
2013-07-14 21:25:00,55.3,48.0,29.92,NNE,20,0.0,0.0,75,0.00,,,0.00,weatherlink.com 1.10,2013-07-15 04:25:00,
2013-07-14 21:40:00,53.2,47.0,29.92,NNE,20,0.0,0.0,79,0.00,,,0.00,weatherlink.com 1.10,2013-07-15 04:40:00,
2013-07-14 21:55:00,52.1,46.0,29.92,NNE,20,0.0,0.0,81,0.00,,,0.00,weatherlink.com 1.10,2013-07-15 04:55:00,
2013-07-14 22:10:00,51.4,46.0,29.92,ESE,117,0.0,0.0,81,0.00,,,0.00,weatherlink.com 1.10,2013-07-15 05:10:00,
2013-07-14 22:25:00,49.3,45.0,29.91,ESE,117,0.0,0.0,85,0.00,,,0.00,weatherlink.com 1.10,2013-07-15 05:25:00,
2013-07-14 22:40:00,48.4,45.0,29.91,ESE,117,0.0,0.0,88,0.00,,,0.00,weatherlink.com 1.10,2013-07-15 05:40:00,
2013-07-14 22:55:00,48.4,45.0,29.92,ESE,117,0.0,0.0,87,0.00,,,0.00,weatherlink.com 1.10,2013-07-15 05:55:00,
2013-07-14 23:10:00,47.5,44.0,29.92,SE,131,0.0,1.0,87,0.00,,,0.00,weatherlink.com 1.10,2013-07-15 06:10:00,
2013-07-14 23:25:00,46.8,44.0,29.92,SE,131,0.0,0.0,89,0.00,,,0.00,weatherlink.com 1.10,2013-07-15 06:25:00,
2013-07-14 23:40:00,45.9,44.0,29.92,SE,131,0.0,0.0,91,0.00,,,0.00,weatherlink.com 1.10,2013-07-15 06:40:00,
2013-07-14 23:55:00,45.2,43.0,29.92,SE,131,0.0,0.0,92,0.00,,,0.00,weatherlink.com 1.10,2013-07-15 06:55:00,